Weather reports worldwide

Advertisment
Chieming, Germany (10982): temperature & dewpoint: 10.09.2019 05:00:00 - 16.09.2019 05:00:00 (CEST)Chieming, Germany (10982): temperature 5cm & temperature -5cm: 10.09.2019 05:00:00 - 16.09.2019 05:00:00 (CEST)Chieming, Germany (10982): temperature -20cm & temperature -100cm: 10.09.2019 05:00:00 - 16.09.2019 05:00:00 (CEST)Chieming, Germany (10982): wind speed & gusts: 10.09.2019 05:00:00 - 16.09.2019 05:00:00 (CEST)Chieming, Germany (10982): wind direction: 10.09.2019 05:00:00 - 16.09.2019 05:00:00 (CEST)Chieming, Germany (10982): reduced air pressure: 10.09.2019 05:00:00 - 16.09.2019 05:00:00 (CEST)Chieming, Germany (10982): visibility: 10.09.2019 05:00:00 - 16.09.2019 05:00:00 (CEST)Chieming, Germany (10982): sunshine duration: 10.09.2019 05:00:00 - 16.09.2019 05:00:00 (CEST)Chieming, Germany (10982): precipitation: 10.09.2019 05:00:00 - 16.09.2019 05:00:00 (CEST)
Date & Time tt [°C] td [°C] tt 5cm [°C] tt -5cm [°C] tt -20cm [°C] tt -100cm [°C] ff [km/h] ff [kn] fx [km/h] fx [kn] dd ppp [hPa] vv [km] sd [min] rr [mm]
16.09.2019 05:00:00 15,2 13,5 13,6 16,0 18,9 17,4 10 6 14 8 S 1021,3 22 0 0,0
16.09.2019 04:00:00 13,9 13,1 12,2 16,3 19,2 17,4 4 2 14 7 ENE 1022,0 17 0 0,0
16.09.2019 03:00:00 15,8 13,8 13,3 16,7 19,4 17,4 9 5 14 8 SSW 1021,7 27 0 0,0
16.09.2019 02:00:00 15,5 14,0 13,1 17,2 19,7 17,4 8 5 11 6 S 1021,9 19 0 0,0
16.09.2019 01:00:00 16,3 14,9 13,5 17,7 20,0 17,4 0 0 14 8 N 1021,9 21 0 0,0
16.09.2019 00:00:00 16,8 15,1 14,7 18,2 20,3 17,4 10 5 13 7 S 1021,9 23 0 0,0
15.09.2019 23:00:00 15,8 15,1 13,7 18,9 20,6 17,4 3 2 7 4 ESE 1021,9 9 0 0,0
15.09.2019 22:00:00 16,4 15,8 14,5 19,9 20,9 17,4 4 2 7 4 ENE 1021,9 9 0 0,0
15.09.2019 21:00:00 17,6 16,4 14,5 21,1 21,1 17,4 3 1 7 4 S 1021,5 14 0 0,0
15.09.2019 20:00:00 19,4 16,5 16,7 22,6 21,1 17,4 5 3 8 4 SSE 1020,9 20 0 0,0
15.09.2019 19:00:00 22,5 16,5 22,0 24,6 20,9 17,4 5 3 6 4 S 1020,1 24 53 0,0
15.09.2019 18:00:00 24,3 16,8 25,8 26,1 20,6 17,4 4 2 9 5 W 1020,0 22 60 0,0
15.09.2019 17:00:00 24,2 16,2 29,3 27,1 20,1 17,4 6 3 10 6 WNW 1020,6 26 60 0,0
15.09.2019 16:00:00 23,7 16,2 33,2 27,3 19,5 17,3 7 4 10 5 NW 1021,4 24 60 0,0
15.09.2019 15:00:00 23,5 15,8 30,3 26,8 18,8 17,3 7 4 11 6 WSW 1021,9 15 60 0,0
15.09.2019 14:00:00 22,7 15,5 32,2 25,7 18,2 17,3 8 4 11 6 WNW 1022,8 18 60 0,0
15.09.2019 13:00:00 21,8 16,0 29,0 24,0 17,6 17,3 8 4 10 6 W 1023,4 24 60 0,0
15.09.2019 12:00:00 19,1 14,5 29,3 21,7 17,1 17,3 5 3 8 5 W 1024,4 17 60 0,0
15.09.2019 11:00:00 16,3 14,7 23,2 19,3 16,9 17,3 6 3 8 5 W 1025,4 9 60 0,0
15.09.2019 10:00:00 15,7 13,7 20,5 17,0 16,8 17,3 5 3 8 5 W 1025,7 11 60 0,0
15.09.2019 09:00:00 14,5 13,0 17,4 14,7 17,0 17,3 4 2 6 3 WSW 1026,2 10 60 0,0
15.09.2019 08:00:00 11,7 11,4 12,2 13,6 17,2 17,3 0 0 8 4 N 1026,7 3,7 31 0,0
15.09.2019 07:00:00 11,1 11,1 9,3 13,6 17,4 17,3 6 4 8 4 ENE 1026,9 2,8 0 0,0
15.09.2019 06:00:00 10,4 10,4 9,3 13,9 17,7 17,3 7 4 9 5 E 1026,9 2,0 0 0,0
15.09.2019 05:00:00 11,4 11,4 10,1 14,3 17,9 17,3 8 4 9 5 E 1026,9 1,0 0 0,0
15.09.2019 04:00:00 11,4 11,4 9,5 14,7 18,2 17,3 6 3 9 5 E 1027,2 2,3 0 0,0
15.09.2019 03:00:00 12,3 12,2 10,3 15,1 18,5 17,3 6 3 10 5 E 1027,8 3,1 0 0,0
15.09.2019 02:00:00 13,4 12,9 10,9 15,6 18,8 17,3 6 4 13 7 ESE 1027,9 8 0 0,0
15.09.2019 01:00:00 12,8 12,7 11,1 16,1 19,1 17,3 7 4 9 5 E 1028,4 5 0 0,0
15.09.2019 00:00:00 13,0 12,7 11,3 16,7 19,4 17,3 8 4 11 6 E 1028,8 5 0 0,0
14.09.2019 23:00:00 13,4 12,9 11,8 17,4 19,7 17,3 9 5 12 7 ENE 1029,0 6 0 0,0
14.09.2019 22:00:00 14,0 13,0 11,8 18,2 20,0 17,3 9 5 10 6 ENE 1028,6 7 0 0,0
14.09.2019 21:00:00 16,0 14,3 13,6 19,2 20,2 17,3 9 5 14 8 E 1028,1 12 0 0,0
14.09.2019 20:00:00 16,2 15,0 13,7 20,6 20,3 17,3 6 4 10 5 ENE 1028,0 10 0 0,0
14.09.2019 19:00:00 19,0 15,2 17,8 22,2 20,3 17,3 9 5 22 12 NE 1027,2 17 47 0,0
14.09.2019 18:00:00 20,3 15,3 21,3 23,3 20,1 17,3 13 7 24 13 NE 1027,1 20 8 0,0
14.09.2019 17:00:00 20,7 15,6 22,3 24,7 19,8 17,2 16 9 27 15 ENE 1027,1 19 28 0,0
14.09.2019 16:00:00 21,7 15,6 25,5 25,5 19,3 17,2 16 8 23 12 E 1027,0 12 60 0,0
14.09.2019 15:00:00 21,5 15,7 26,2 25,2 18,8 17,2 16 9 24 13 ENE 1027,5 15 56 0,0
14.09.2019 14:00:00 21,3 15,6 26,2 25,2 18,2 17,2 14 7 19 10 NE 1027,7 13 57 0,0
14.09.2019 13:00:00 21,0 14,8 27,8 23,7 17,7 17,2 10 6 18 10 E 1028,4 24 60 0,0
14.09.2019 12:00:00 20,2 15,1 26,2 22,1 17,3 17,2 10 5 15 8 NE 1029,2 19 60 0,0
14.09.2019 11:00:00 18,8 14,6 25,8 19,9 17,0 17,2 8 4 12 7 NE 1029,9 19 60 0,0
14.09.2019 10:00:00 17,1 14,0 21,6 17,5 16,9 17,2 6 3 8 5 W 1030,5 16 60 0,0
14.09.2019 09:00:00 16,6 13,7 19,2 15,3 17,0 17,2 3 2 10 5 ESE 1030,5 18 60 0,0
14.09.2019 08:00:00 13,0 12,3 13,4 14,2 17,3 17,2 6 3 9 5 ENE 1031,2 9 25 0,0
14.09.2019 07:00:00 12,8 12,3 11,3 14,3 17,5 17,2 8 4 13 7 S 1030,9 13 0 0,0
14.09.2019 06:00:00 13,4 12,9 12,1 14,6 17,7 17,2 8 4 9 5 SE 1031,1 16 0 0,0
14.09.2019 05:00:00 12,3 11,8 10,8 15,0 18,0 17,2 6 3 17 9 N 1031,4 15 0 0,0
14.09.2019 04:00:00 13,4 13,2 11,6 15,4 18,2 17,2 3 2 5 3 SE 1031,0 17 0 0,0
14.09.2019 03:00:00 13,6 13,1 12,3 15,9 18,5 17,2 3 2 7 4 W 1031,0 16 0 0,0
14.09.2019 02:00:00 13,6 13,0 12,4 16,4 18,8 17,2 6 3 10 5 E 1031,5 16 0 0,0
14.09.2019 01:00:00 14,8 13,2 13,0 16,8 19,0 17,2 5 3 9 5 SE 1031,3 16 0 0,0
14.09.2019 00:00:00 15,3 13,7 12,9 17,6 19,3 17,2 6 3 8 5 E 1031,4 22 0 0,0
13.09.2019 23:00:00 15,2 13,8 14,0 18,1 19,6 17,2 6 3 13 7 ESE 1031,7 17 0 0,0
13.09.2019 22:00:00 15,0 13,9 13,2 18,8 19,8 17,2 6 3 7 4 E 1031,3 18 0 0,0
13.09.2019 21:00:00 16,3 14,7 13,8 20,0 20,0 17,2 6 3 10 5 E 1030,9 27 0 0,0
13.09.2019 20:00:00 18,3 14,9 15,1 21,6 20,1 17,2 9 5 10 5 E 1030,0 20 0 0,0
13.09.2019 19:00:00 21,5 14,3 20,4 23,6 19,9 17,2 6 3 9 5 NE 1029,1 26 56 0,0
13.09.2019 18:00:00 23,0 14,4 25,3 25,0 19,6 17,2 5 3 7 4 W 1028,9 23 60 0,0
13.09.2019 17:00:00 23,3 13,7 27,4 25,8 19,1 17,2 6 3 10 5 WSW 1029,0 27 60 0,0
13.09.2019 16:00:00 23,3 14,5 28,8 26,0 18,5 17,2 8 5 12 6 WSW 1029,5 17 60 0,0
13.09.2019 15:00:00 22,9 13,1 30,5 25,6 17,9 17,2 7 4 14 7 W 1029,8 20 60 0,0
13.09.2019 14:00:00 22,7 13,2 32,4 24,6 17,2 17,2 8 4 12 7 WNW 1030,0 23 60 0,0
13.09.2019 13:00:00 21,7 13,2 31,5 23,2 16,6 17,2 9 5 12 7 WNW 1030,4 21 60 0,0
13.09.2019 12:00:00 20,1 12,8 28,5 21,3 16,1 17,2 8 4 11 6 W 1030,8 27 60 0,0
13.09.2019 11:00:00 19,2 13,5 25,3 18,9 15,8 17,2 6 3 9 5 W 1031,1 21 60 0,0
13.09.2019 10:00:00 18,0 13,3 21,1 16,3 15,7 17,2 7 4 11 6 WSW 1031,6 20 60 0,0
13.09.2019 09:00:00 15,0 12,0 17,3 14,0 15,8 17,2 9 5 14 8 SSW 1032,0 12 60 0,0
13.09.2019 08:00:00 12,1 10,7 12,7 12,8 16,0 17,2 0 0 7 4 N 1032,8 15 34 0,0
13.09.2019 07:00:00 11,5 10,9 9,3 13,0 16,2 17,2 2 1 5 3 SW 1032,9 17 0 0,0
13.09.2019 06:00:00 12,3 10,9 9,5 13,4 16,4 17,2 3 2 12 6 S 1032,4 21 0 0,0
13.09.2019 05:00:00 12,5 11,1 10,3 13,7 16,6 17,2 0 0 6 3 N 1032,1 25 0 0,0
13.09.2019 04:00:00 11,1 10,5 10,1 13,6 16,9 17,2 5 3 9 5 ESE 1032,5 19 0 0,0
13.09.2019 03:00:00 11,2 10,7 9,3 13,9 17,2 17,2 8 5 10 5 E 1032,6 21 0 0,0
13.09.2019 02:00:00 11,8 11,1 10,0 14,3 17,5 17,2 5 3 8 4 ENE 1032,7 14 0 0,0
13.09.2019 01:00:00 11,7 11,2 9,8 14,8 17,8 17,2 5 3 6 3 E 1032,8 16 0 0,0
13.09.2019 00:00:00 12,8 11,8 10,4 15,4 18,1 17,2 4 2 5 3 ESE 1032,4 22 0 0,0
12.09.2019 23:00:00 13,0 12,2 10,8 16,2 18,4 17,2 5 3 8 4 SE 1032,4 17 0 0,0
12.09.2019 22:00:00 13,4 12,2 11,1 17,1 18,7 17,2 6 4 8 4 E 1032,2 14 0 0,0
12.09.2019 21:00:00 15,5 12,7 12,2 18,3 18,9 17,3 4 2 6 4 SSE 1031,4 30 0 0,0
12.09.2019 20:00:00 16,5 12,2 13,6 20,1 18,9 17,3 5 3 5 3 ESE 1030,6 28 0 0,0
12.09.2019 19:00:00 20,3 12,3 19,6 22,1 18,7 17,3 2 1 5 3 WNW 1029,5 24 58 0,0
12.09.2019 18:00:00 22,2 10,7 24,6 23,4 18,4 17,3 3 1 6 4 W 1029,1 26 60 0,0
12.09.2019 17:00:00 21,6 10,5 25,2 24,1 18,0 17,3 5 3 11 6 W 1029,5 21 60 0,0
12.09.2019 16:00:00 21,1 10,1 27,3 24,2 17,4 17,3 6 4 11 6 W 1030,0 20 53 0,0
12.09.2019 15:00:00 20,2 10,0 25,8 23,7 16,9 17,3 7 4 12 6 W 1030,5 35 56 0,0
12.09.2019 14:00:00 19,6 9,7 26,6 22,5 16,3 17,3 8 4 11 6 W 1030,9 23 57 0,0
12.09.2019 13:00:00 18,7 10,1 25,2 21,2 15,9 17,3 7 4 11 6 WNW 1031,4 25 35 0,0
12.09.2019 12:00:00 18,1 9,7 22,2 19,0 15,5 17,3 5 3 8 4 WSW 1031,6 29 3 0,0
12.09.2019 11:00:00 17,2 13,5 20,8 16,9 15,4 17,3 3 2 8 4 W 1031,4 29 0 0,0
12.09.2019 10:00:00 15,4 13,0 16,7 15,1 15,3 17,3 4 2 15 8 SSW 1031,4 22 0 0,0
12.09.2019 09:00:00 14,2 11,6 13,9 14,2 15,4 17,3 10 5 18 10 S 1031,0 20 0 0,0
12.09.2019 08:00:00 13,0 11,7 12,5 13,7 15,5 17,3 14 7 18 10 S 1031,0 17 0 0,0
12.09.2019 07:00:00 12,6 11,6 11,8 13,6 15,6 17,3 11 6 14 7 S 1030,8 18 0 0,0
12.09.2019 06:00:00 12,5 11,6 11,8 13,6 15,7 17,3 10 5 14 7 S 1030,2 15 0 0,1
12.09.2019 05:00:00 12,3 11,7 11,5 13,7 15,9 17,3 10 5 16 9 S 1030,0 16 0 0,0
12.09.2019 04:00:00 12,3 11,7 11,0 13,9 16,0 17,4 11 6 17 9 S 1029,7 15 0 0,0
12.09.2019 03:00:00 13,2 12,2 12,3 14,4 16,2 17,4 12 7 16 9 S 1029,0 23 0 0,0
12.09.2019 02:00:00 13,0 12,4 12,4 14,6 16,3 17,4 8 5 19 11 SE 1028,6 15 0 0,2
12.09.2019 01:00:00 14,0 13,3 13,2 14,8 16,5 17,4 13 7 23 13 SSW 1028,5 6 0 1,5
12.09.2019 00:00:00 12,5 11,6 11,5 14,8 16,7 17,4 7 4 10 5 E 1028,0 12 0 0,0
11.09.2019 23:00:00 12,6 11,7 11,9 15,1 17,0 17,4 5 3 15 8 E 1027,6 11 0 0,0
11.09.2019 22:00:00 13,2 12,1 11,5 15,8 17,2 17,4 8 5 11 6 S 1027,2 16 0 0,0
11.09.2019 21:00:00 12,9 12,1 11,0 16,7 17,3 17,4 4 2 7 4 SE 1026,6 11 0 0,0
11.09.2019 20:00:00 14,9 12,2 12,5 18,3 17,3 17,4 5 3 7 4 S 1025,1 18 0 0,0
11.09.2019 19:00:00 18,4 12,1 17,6 20,2 17,1 17,4 3 2 7 4 W 1023,8 18 55 0,0
11.09.2019 18:00:00 19,7 12,6 22,1 21,5 16,7 17,5 3 2 9 5 W 1022,7 19 60 0,0
11.09.2019 17:00:00 19,3 12,0 22,9 22,1 16,2 17,5 6 3 10 6 WSW 1022,5 19 60 0,0
11.09.2019 16:00:00 18,9 11,4 23,6 22,2 15,6 17,5 6 3 9 5 SW 1022,6 15 59 0,0
11.09.2019 15:00:00 18,4 11,2 24,0 21,1 15,1 17,5 5 3 10 5 WSW 1023,1 15 58 0,0
11.09.2019 14:00:00 16,6 10,8 22,7 18,9 14,7 17,5 6 4 9 5 W 1023,7 12 35 0,0
11.09.2019 13:00:00 15,3 10,7 19,7 17,4 14,4 17,5 4 2 10 5 W 1023,7 16 11 0,0
11.09.2019 12:00:00 14,3 11,4 20,0 15,8 14,1 17,5 7 4 16 9 W 1023,8 15 2 0,0
11.09.2019 11:00:00 13,4 11,6 16,5 14,2 14,0 17,5 6 4 9 5 WNW 1024,0 16 0 0,0
11.09.2019 10:00:00 12,0 11,0 12,5 12,9 14,0 17,6 5 3 8 4 S 1023,9 16 0 0,0
11.09.2019 09:00:00 11,6 11,2 11,7 12,1 14,0 17,6 3 2 7 4 SSE 1023,4 10 0 0,0
11.09.2019 08:00:00 10,9 10,0 11,1 11,3 14,2 17,6 4 2 15 8 NE 1022,9 17 22 0,0
11.09.2019 07:00:00 9,8 9,6 9,0 10,9 14,3 17,6 8 5 12 7 S 1022,5 22 0 0,0
11.09.2019 06:00:00 9,6 9,4 8,4 11,2 14,5 17,6 10 5 15 8 SSW 1022,0 14 0 0,0
11.09.2019 05:00:00 9,1 9,1 7,2 11,3 14,7 17,6 3 2 7 4 SE 1021,5 6 0 0,0
11.09.2019 04:00:00 9,2 9,2 7,6 11,7 14,9 17,6 3 2 7 4 SE 1021,7 6 0 0,0
11.09.2019 03:00:00 10,0 10,0 8,3 11,9 15,1 17,7 5 3 6 4 SSE 1021,3 11 0 0,0
11.09.2019 02:00:00 9,8 9,8 8,3 12,3 15,4 17,7 5 3 6 4 E 1021,2 12 0 0,0
11.09.2019 01:00:00 10,4 10,2 8,3 12,9 15,6 17,7 5 3 8 4 E 1021,0 14 0 0,0
11.09.2019 00:00:00 10,8 10,5 9,7 13,4 15,8 17,7 4 2 7 4 ESE 1020,8 15 0 0,0
10.09.2019 23:00:00 10,9 10,4 8,9 13,6 16,1 17,7 4 2 7 4 E 1020,6 9 0 0,0
10.09.2019 22:00:00 11,1 10,7 8,9 14,5 16,3 17,8 6 3 10 5 E 1020,0 13 0 0,0
10.09.2019 21:00:00 12,2 10,8 9,6 15,6 16,5 17,8 9 5 12 7 E 1019,4 22 0 0,0
10.09.2019 20:00:00 13,7 11,1 11,1 17,2 16,5 17,8 8 4 14 8 E 1018,3 21 0 0,0
10.09.2019 19:00:00 16,6 12,0 16,1 19,0 16,3 17,8 10 6 17 9 NE 1017,1 27 59 0,0
10.09.2019 18:00:00 17,6 11,3 18,8 20,3 16,0 17,8 13 7 18 10 ENE 1016,4 30 60 0,0
10.09.2019 17:00:00 18,0 10,7 21,4 21,2 15,5 17,8 12 7 19 10 ENE 1016,2 24 60 0,0
10.09.2019 16:00:00 18,0 10,7 22,8 21,4 14,9 17,9 12 6 19 10 E 1016,2 19 60 0,0
10.09.2019 15:00:00 17,5 10,5 22,6 20,9 14,3 17,9 11 6 24 13 NE 1016,4 20 60 0,0
10.09.2019 14:00:00 16,2 9,5 23,2 20,2 13,6 17,9 11 6 22 12 NE 1016,9 18 60 0,0
10.09.2019 13:00:00 15,2 9,7 20,7 18,7 12,9 17,9 12 7 21 11 NE 1017,1 9 60 0,0
10.09.2019 12:00:00 14,6 8,8 20,2 16,8 12,3 17,9 10 5 16 8 NE 1017,3 12 60 0,0
10.09.2019 11:00:00 13,2 7,9 19,5 14,2 11,9 17,9 7 4 12 6 ENE 1017,4 24 60 0,0
10.09.2019 10:00:00 11,2 7,4 14,9 11,4 11,8 18,0 5 3 8 4 NNE 1018,1 20 60 0,0
10.09.2019 09:00:00 9,6 6,2 11,5 9,1 11,8 18,0 2 1 9 5 N 1018,4 25 60 0,0
10.09.2019 08:00:00 6,3 5,5 6,9 7,4 12,0 18,0 8 4 13 7 ENE 1018,7 34 29 0,0
10.09.2019 07:00:00 3,9 3,8 2,4 7,3 12,2 18,0 9 5 12 6 E 1018,5 26 0 0,0
10.09.2019 06:00:00 4,7 4,7 2,5 7,5 12,3 18,0 7 4 11 6 E 1018,3 19 0 0,0
10.09.2019 05:00:00 5,4 5,2 3,5 7,9 12,5 18,0 6 4 10 5 E 1018,0 32 0 0,0

tt = temperature
td = dewpoint
tt 5cm = temperature 5cm
tt -5cm = temperature -5cm
tt -20cm = temperature -20cm
tt -100cm = temperature -100cm
ff = wind speed
fx = gusts
dd = wind direction
ppp = reduced air pressure
vv = visibility
sd = sunshine duration
rr = precipitation

Next stations